STARLINK-33553, 62108

Orbit data source: Space-Track

STARLINK-33553, 62108 is a payload satellite owned by SpaceX/Seattle (US) in LEO that was launched on Mon, 25 Nov 2024 UTC via an FALCON 9 launch vehicle from the Air Force Eastern Test Range (AFETR). Payload-class satellites include a variety of spacecraft equipped with specific instruments for various scientific and technological missions. These include communications satellites like Starlink; space stations such as the ISS; scientific satellites like the Hubble; Earth observation satellites from companies like Planet Labs, Umbra, and HawkEye 360; GPS; miniature CubeSats for education and research; and military/defense satellites.

Loading next visibility...
Identifier
62108, 2024-220W
Orbit
LEO
Country
Flag of USUS
Related business
Manufacturer
SpaceX/Seattle
Mission
Operational Commercial Communications
Bus & Motor
STARLINK V2MO, Unknown motor
Mass
530 kg wet, ~500 kg dry
Launch date (UTC)
2024-11-25 (2 years ago)
Launch vehicle
FALCON 9
Launch site
Air Force Eastern Test Range (AFETR)
Object type
Payload
Rocket body
Debris
Shape & HBR
Box + 2 Pan, 17.7 m
Radar Cross Section
36.964 m², Large (>1 m²)

Expand to show TLE details & history
Last TLE update: 2 days ago

TLE from 2 days ago
0 STARLINK-33553
1 62108U 24220W   26169.92277953  .00019418  00000-0  71303-3 0  9995
2 62108  43.0010 353.8193 0001758 269.5966  90.4684 15.27591552 88675
Epoch: 2026-06-18T22:08Z
TLE epoch observation values (Epoch: 2026-06-18T22:08:48.151Z)
Latitude
-0.00003°
Longitude
114.45949°
Altitude
482.8 km
Speed
7.626 km/s
True Right ascension
23h 35m 16s
True Declination
0° 00' 00"
Sunlit
Object was in daylight at epoch
Visualization orbit readout
Latitude
Unknown
Longitude
Unknown
Altitude
Unknown
Speed
Unknown
Apparent Right ascension
Unknown
Apparent Declination
Unknown
Sunlit
N/A
Visualization observer readout
Local Sidereal Time
07:16:56
Azimuth
Unknown
Elevation
Unknown
Doppler factor
Unknown
Orbital elements
Apogee altitude
486.166 km
Perigee altitude
483.753 km
Semi-major axis
6,863.097 km
Eccentricity
0.00018
Inclination
43.001°
RAAN
353.8193°
Arg. of periapsis
269.5966°
True anomaly
90.48854°
Mean anomaly
90.4684°
Eccentric anomaly
90.47847°
Mean motion
3.81736 °/min
Orbital period
94.31 mins
BSTAR
0.00071303
Loading maneuver chart data...
Computing Atmospheric mass density...
Loading historical data...
Loading historical data...
Loading historical data...
Loading historical data...
Loading historical data...
Loading historical data...
Loading historical data...

Documentation

Showing up to 5 results
|